TYVAK-0173 (48892 NORAD) Tracking and Keplerian Element Data

This shows tracking and keplerian element data for the satellite.

Feedback or suggestion? Click here.




ElementValue
Catalog48892
NameTYVAK-0173
Epoch Orbit1360
Epoch Day268.63139497
Epoch Year2021
RAAN31.9451
Inclination97.5216
Eccentricity0.0011807
Argument of Perigee50.4605
Mean Anonmoly309.7646
Mean Motion14.74047453
Decay Rate3.29E-06
L11 48892U 21059P 21268.63139497 .00000329 00000-0 56900-4 0 9997
L22 48892 97.5216 31.9451 0011807 50.4605 309.7646 14.74047453 13607

Live tracking and technical data element details for TYVAK-0173 (NORAD 48892). TYVAK-0173 can be tracked NOW for your location showing map with azimuth and elevation plus other details from your city location.

Track the satellite on the map from your city or location and see movement details for azimuth, elevation, latitude, longitude, range, height, and movement on the map or in text.







IsCatalogInMostPopularTable: catalog: 48892, numindb: 12
Update: records affected: 1



GetName: 48892 TYVAK-0173

Hit Count: updated at: Sun, 26 Sep 2021 15:32:44 GMT